Regional Weather Roundup
Issued by NWS Charleston, WV

Home | Current Version | Previous Version | Graphics & Text | Print | Product List | Glossary On
Versions: 1 2 3 4 5 6 7 8 9 10 11 12 13 14 15 16 17 18 19 20 21 22 23 24 25 26 27 28 29 30 31 32 33 34 35 36 37 38 39 40 41 42 43 44 45 46 47 48 49 50
110
ASUS41 KRLX 200210
RWRRLX
West Virginia Regional Weather Roundup
National Weather Service Charleston WV
1000 PM EDT THU APR 19 2018

Note: "fair" indicates few or no clouds below 12,000 feet with no
significant weather and/or obstructions to visibility.

WVZ003-200300-
Northern Panhandle of West Virginia

CITY           SKY/WX    TMP DP  RH WIND       PRES   REMARKS
WHEELING       FAIR      41  23  48 NW7       30.22R
$$

WVZ009-200300-
Northwest West Virginia

CITY           SKY/WX    TMP DP  RH WIND       PRES   REMARKS
PARKERSBURG    FAIR      42  28  57 W3        30.27R
$$

WVZ006-200300-
Western West Virginia

CITY           SKY/WX    TMP DP  RH WIND       PRES   REMARKS
HUNTINGTON     FAIR      44  27  51 SW6       30.29R
$$

WVZ015-200300-
West Central West Virginia

CITY           SKY/WX    TMP DP  RH WIND       PRES   REMARKS
CHARLESTON     FAIR      41  31  67 SW3       30.28R
$$

WVZ022-031-200300-
North Central West Virginia

CITY           SKY/WX    TMP DP  RH WIND       PRES   REMARKS
CLARKSBURG     MOCLDY    43  28  55 CALM      30.22R
MORGANTOWN     FAIR      39  30  70 CALM      30.22R
$$

WVZ025-035-042-045-200300-
Southern West Virginia

CITY           SKY/WX    TMP DP  RH WIND       PRES   REMARKS
BECKLEY        FAIR      35  25  66 NW8       30.23R
LOGAN          FAIR      41  27  56 CALM      30.27R
BLUEFIELD      MOCLDY    34  25  69 NW9       30.23R
LEWISBURG      FAIR      37  26  66 NW5       30.22R
$$

WVZ047-200300-
Northern Mountains of West Virginia

CITY           SKY/WX    TMP DP  RH WIND       PRES   REMARKS
ELKINS         CLOUDY    37  26  64 W5        30.21R
$$

WVZ052-200300-
Eastern Panhandle of West Virginia

CITY           SKY/WX    TMP DP  RH WIND       PRES   REMARKS
MARTINSBURG    FAIR      42  24  49 NW14      30.13R
PETERSBURG     CLOUDY    43  28  54 NW9G22    30.17R
$$




USA.gov is the U.S. government's official web portal to all federal, state and local government web resources and services.